Погода в Астрахани

Погода в Астрахани : погода сейчас, прогноз погоды и архив. Всё, что Вы хотите узнать о погоде в Астрахани!

Хотите узнать прогноз погоды в Астрахани? Тогда Вам сюда: Погода в Астрахани

Поиск расширенной информации на нашем сайте:

Другие новости

Новости СМИ2

Главная страница сайта

Новости сайта

03.07.2017

Напоминаем, что на нашем специализированном сайте Метеоцентр.Азия вы можете получить высокодетализированные автоматические прогнозы погоды по пунктам России, СНГ и мира в авиационном формате (включающие направление и скорость ветра, видимость, явления погоды, количество и форму облачности, нижнюю и верхнюю границу облачности).

Рекомендуем: http://angiosurgery.org/ флебология лечение вен.

Погода в Астрахани - сегодня

Время (UTC), дата Ветер
(°,м/с) 
Видим.   Явления Облачность Т
(°С)
Тd
(°С)
f(%) Тe
(°С)
Pmin
(гПа)
dP
(гПа)
Po
(мм)
O2
(г/м3)
Тmin Tmax R s Состояние
почвы
09 13.01.18 350 (С) 4000 м  слаб. ливневой снег  9/9 600 м кучево-дожд. 
[Cb cap]
-6.5 -9.4 80 -10  1032.5  0.7  776  322           
12 13.01.18 010 (С) 10 км  {ливн. осадки, снег}  10/10 1000 м 
[Sc]
-6.2 -10 74 -9  1033.6  1.1  777  322           
15 13.01.18 360 (С) 10 км    10/4 1000 м средняя 
[Sc|Ac As]
-7 -10.5 76 -11  1035.4  1.8  779  323    -6  0.7     
18 13.01.18 010 (С) 10 км    ясно 
-9.2 -11.8 81 -12  1036.3  0.9  779  326           
21 13.01.18 020 (С) 4000 м  дымка  ясно 
-11.5 -13.1 88 -15  1036.6  0.4  780  329           
00 14.01.18 020 (С) 10 км    ясно 
-13.9 -16.2 83 -17  1036.5  -0.2  779  332           
03 14.01.18 030 (СВ) 10 км    8/0 средняя 
[Ac trans]
-15.9 -18.3 82 -18  1036.8  0.4  780  335  -15.9      равномерный
сухой снег
100% 
06 14.01.18 030 (СВ) 10 км    ясно 
-15.9 -18.8 78 -18  1037.3  0.5  780  335  -16.8         
09 14.01.18 030 (СВ) 10 км    ясно 
-10.1 -16.1 61 -12  1036.3  -1.1  779  328           
12 14.01.18 010 (С) 10 км    ясно 
-9.1 -15.9 58 -12  1035.7  -0.6  779  326           
15 14.01.18 020 (С) 10 км    ясно 
-13.2 -16.9 74 -17  1036.4  0.8  779  332    -8.9       
18 14.01.18 050 (СВ) 10 км    3/0 средняя 
[Ac trans]
-14.5 -17.8 76 -18  1036.8  0.4  780  333           
21 14.01.18 020 (С) 4000 м  слаб. снег  10/8 300 м средняя 
[Frnb|As op]
-13.1 -14.3 91 -13  1036.7  -0.1  780  331           
00 15.01.18 030 (СВ) 4000 м  дымка{снег} [диам. изморози 1 мм]  10/8 300 м средняя 
[Frnb|As op]
-9.9 -10.9 92 -12  1036.4  -0.4  779  327           
03 15.01.18 030 (СВ) 4000 м  слаб. снег  10/8 300 м средняя 
[Frnb|As op]
-9.1 -10.4 90 -12  1036.8  0.4  780  326  -15.4    0.0     
06 15.01.18 050 (СВ) 4000 м  слаб. снег  10/8 300 м средняя 
[Frnb|As op]
-8 -9.5 89 -10  1038  1.2  781  325           
09 15.01.18 090 (В) 4000 м  слаб. снег  10/8 300 м средняя 
[Frnb|As op]
-6.4 -9.1 81 -9  1037.8  -0.2  780  323           
12 15.01.18 040 (СВ) 10 км  {ливн. осадки, снег}  9/9 600 м 
[Sc]
-6.2 -8.8 82 -9  1037.7  -0.1  780  323           
15 15.01.18 050 (СВ) 4000 м  дымка  10/10 600 м 
[Sc]
-8.2 -10 87 -11  1038  0.3  781  325    -5.9  0.0     
18 15.01.18 050 (СВ) 10 км    3/0 средняя 
[Ac trans]
-14.1 -16.1 85 -14  1038.8  0.8  781  333           
21 15.01.18 060 (СВ) 4000 м  дымка  3/0 средняя 
[Ac trans]
-16.3 -17.8 88 -16  1038.4  -0.3  781  336           
00 16.01.18 060 (СВ) 1000 м  дымка [диам. изморози 0 мм]  8/8 200 м 
[St]
-16.5 -18 88 -17  1037.6  -0.8  780  336           
03 16.01.18 060 (СВ) 2000 м  дымка  6/6 200 м 
[St]
-17.2 -18.9 87 -17  1037  -0.6  780  337  -17.2         
06 16.01.18 070 (В) 4000 м  дымка [диам. изморози 11 мм]  9/9 300 м 
[St]
-15.4 -16.9 88 -15  1036.9  -0.1  780  335  -17.3         
09 16.01.18 070 (В) 10 км    1/0 верхняя 
[Ci fib]
-9.9 -12.3 83 -12  1035  -2  778  327           
Время (UTC), дата Ветер
(°,м/с) 
Видим.   Явления Облачность Т
(°С)
Тd
(°С)
f(%) Тe
(°С)
Pmin
(гПа)
dP
(гПа)
Po
(мм)
O2
(г/м3)
Тmin Tmax R s Состояние
почвы

Для получения пояснительной информации подведите курсор к названию столбца.

ПОГОДА в Астрахани - архив

Всё, что Вы хотите узнать о погоде в Астрахани - удобно и подробно!

Выберите нужную дату (начиная с 1 января 2015* года) и нажмите кнопку "Найти".
Будут отображены архивные сводки погоды по пункту Астрахань, начиная с указанной даты.


Отображать данные в формате CSV (для использования в таблицах Excel)


Внимание! Наш архив погоды предназначен исключительно для личного некоммерческого использования в познавательных целях. Если Вам необходимы официальные справки о состоянии погоды (для производственных, юридических, коммерческих и т.п. целей), обращайтесь в органы Росгидромета.

*Примечание: данная дата относится к архиву по метеостанциям СССР (Россия, СНГ, Балтия).
Архив по метеостанциям Зарубежной Европы и Азии (кроме Китая) хранится 10 дней, по другим регионам земного шара (Китай, Африка, Америка, Австралия, Океания) - 1 день.

Астрахань - район местоположения метеостанции


Название, широта, долгота, высота метеостанции:
Астрахань (обсерватория) 46.3°ш. 47.9°д. -23 м над ур. моря [Российская Федерация]

Дополнительная информация

В oтличие oт бoльшинства пoгoдных сайтoв мы публикуем пoдрoбную метеoинфoрмацию в детальнoм прoфессиoнальнoм фoрмате.

Характеристики температуры и влажнoсти вoздуха измеряются на высoте 2 м в тени вдали oт зданий и деревьев.
Скoрoсть ветра измеряется на высoте 10 м (на урoвне рoста челoвека скoрoсть ветра ниже в 1.5-2 раза). Если метеoстанция нахoдится в гoрoде или в лесу, тo скoрoсть ветра занижена на 2-4 м/с пo сравнению с oткрытым местoм. Скoрoсть ветра над акватoриями крупных рек и oзёр, а также на вершинах хoлмoв на 2-5 м/с выше, чем в oбычных услoвиях.
Атмoсфернoе давление в разных тoчках местнoсти мoжет значительнo oтличаться oт давления на метеoстанции, в зависимoсти oт услoвий рельефа (при пoдъёме на 10 м давление пoнижается примернo на 1 мм рт.ст.).